Regional Weather Roundup
Issued by NWS Binghamton, NY

Home | Current Version | Previous Version | Text Only | Print | Product List | Glossary On
Versions: 1 2 3 4 5 6 7 8 9 10 11 12 13 14 15 16 17 18 19 20 21 22 23 24 25 26 27 28 29 30 31 32 33 34 35 36 37 38 39 40 41 42 43 44 45 46 47 48 49 50
000
ASUS41 KBGM 190110
RWRBGM
RWRBGM
BINGHAMTON REGIONAL WEATHER ROUNDUP
NATIONAL WEATHER SERVICE BINGHAMTON NY
800 PM EST THU DEC 18 2014

Note: "fair" indicates few or no clouds below 12,000 feet with no
significant weather and/or obstructions to visibility.

* = Station(s) that does not report precipitation, such as rain,
snow, etc, also no thunder or fog.

!NYZ009-015>018-022>025-036-037-044>046-055>057-062-190200
...CENTRAL NEW YORK...

CITY           SKY/WX    TMP DP  RH WIND       PRES   REMARKS
BINGHAMTON     CLOUDY    28  27  96 NW9       29.96F FOG     WCI  19
CORTLAND       MIX PCPN  30  30 100 W8        30.02S WCI  23
DANSVILLE      CLOUDY    32  27  81 NW10      30.06F WCI  24
ELMIRA         CLOUDY    33  27  78 W7        30.03R WCI  27
ITHACA         LGT SNOW  30  28  92 NW14      30.02F FOG     WCI  19
HAMILTON       CLOUDY    30  27  86 NW8       29.98S WCI  23
MONTICELLO     CLOUDY    30  25  80 NW14G21   29.94S WCI  20
NORWICH        CLOUDY    30  27  86 NW5       29.99F WCI  25
ONEONTA        CLOUDY    27  27 100 CALM      29.93S FOG
PENN YAN       CLOUDY    31  26  82 W10       30.03F WCI  22
ROME           CLOUDY    30  28  92 W13       30.02S WCI  20
SIDNEY         CLOUDY    32  28  86 W6        29.99S WCI  26
SYRACUSE       FRZ DRZL  31  30  96 W10       30.03S FOG     WCI  22
$$

!PAZ038>040-043-044-047-048-072-190200
...NORTHEAST PENNSYLVANIA...

CITY           SKY/WX    TMP DP  RH WIND       PRES   REMARKS
HAZLETON       CLOUDY    32  27  80 W14G20    29.98F WCI  22
SCRANTON       CLOUDY    35  25  66 NW12G20   29.99F WCI  27
TOWANDA*       CLOUDY    34  25  69 W5        30.03F WCI  30
$$
&&
KEY
WCI = WIND CHILL INDEX
VSB = VISIBILITY
HX  = HEAT INDEX
$$



USA.gov is the U.S. government's official web portal to all federal, state and local government web resources and services.